Regional Weather Roundup
Issued by NWS Sioux Falls, SD

Home | Current Version | Previous Version | Graphics & Text | Print | Product List | Glossary On
Versions: 1 2 3 4 5 6 7 8 9 10 11 12 13 14 15 16 17 18 19 20 21 22 23 24 25 26 27 28 29 30 31 32 33 34 35 36 37 38 39 40 41 42 43 44 45 46 47 48 49 50
999
ASUS43 KFSD 312302
RWRFSD

WEATHER ROUNDUP FOR SE SOUTH DAKOTA/SW MINNESOTA/NW IOWA
NATIONAL WEATHER SERVICE SIOUX FALLS SD
600 PM CDT TUE MAY 31 2016

NOTE: "FAIR" INDICATES FEW OR NO CLOUDS BELOW 12,000 FEET WITH NO
SIGNIFICANT WEATHER AND OR OBSTRUCTIONS TO VISIBILITY.


SDZ038>040-050-052>070-010000-
SOUTHEAST SOUTH DAKOTA

CITY           SKY/WX    TMP DP  RH WIND       PRES   REMARKS
CHAMBERLAIN    NOT AVBL
HURON          MOSUNNY   72  45  37 W28G41    29.81F
MADISON        MOCLDY    68  50  52 SW15G26   29.84F
MITCHELL       MOSUNNY   75  48  38 NW17      29.83F
SIOUX FALLS    MOSUNNY   72  47  40 SW7       29.86F
WINNER         FAIR      72  44  36 NW24G37   29.88S
YANKTON        SUNNY     73  46  38 SW10      29.85F
$$

MNZ071-072-080-081-089-090-097-098-010000-
SOUTHWEST MINNESOTA

CITY           SKY/WX    TMP DP  RH WIND       PRES   REMARKS
FAIRMONT       MOSUNNY   73  52  46 W10       29.86F
JACKSON        SUNNY     72  43  35 W10G16    29.88S
LUVERNE        SUNNY     72  41  33 W12G18    29.87F
MARSHALL       MOSUNNY   74  45  35 SW17G23   29.83F
MONTEVIDEO     PTSUNNY   73  45  35 W8G17     29.82F
PIPESTONE      SUNNY     72  46  40 W13       29.86F
REDWOOD FALLS  MOSUNNY   73  45  36 SW13G18   29.83F
TRACY          SUNNY     73  50  45 W8        29.85F
WINDOM         SUNNY     72  45  37 W14G21    29.86F
WORTHINGTON    MOSUNNY   71  47  42 W13       29.88F
$$

IAZ001>003-012>014-020>022-031-032-NEZ013-014-SDZ071-010000-
NORTHWEST IOWA

CITY           SKY/WX    TMP DP  RH WIND       PRES   REMARKS
ESTHERVILLE    SUNNY     72  55  55 W12       29.88S
SIOUX CITY     SUNNY     76  46  34 NW9       29.90S
SPENCER        SUNNY     73  49  42 W10       29.88F
STORM LAKE     SUNNY     72  50  46 NW8       29.90S
$$

ABBREVIATIONS USED IN REMARKS
   TC - TEMPERATURE IN CELSIUS
  WCI - WIND CHILL INDEX
   HX - HEAT INDEX
  VSB - VISIBILITY





USA.gov is the U.S. government's official web portal to all federal, state and local government web resources and services.